Regional Weather Roundup
Issued by NWS

Home | Current Version | Previous Version | Graphics & Text | Print | Product List | Glossary On
Versions: 1 2 3 4 5 6 7 8 9 10 11 12 13 14 15 16 17 18 19 20 21 22 23 24 25 26 27 28 29 30 31 32 33 34 35 36 37 38 39 40 41 42 43 44 45 46 47 48 49 50
603
ASUS43 KMPX 290201
RWRMN
WEATHER ROUNDUP FOR MINNESOTA
NATIONAL WEATHER SERVICE TWIN CITIES/CHANHASSEN MN
900 PM CDT SUN AUG 28 2016


NOTE: "FAIR" INDICATES FEW OR NO CLOUDS BELOW 12,000 FEET WITH NO
SIGNIFICANT WEATHER AND/OR OBSTRUCTIONS TO VISIBILITY. N/A MEANS
CURRENT SKY AND/OR WEATHER CONDITIONS ARE NOT AVAILABLE.

MNZ060>063-068>070-290300-
   Twin Cities Metro

CITY           SKY/WX    TMP DP  RH WIND       PRES   REMARKS
TWIN CITIES    PTCLDY    77  67  71 SE7       30.11R
ST PAUL        CLEAR     74  68  81 SE3       30.11R
CRYSTAL        CLEAR     77  66  68 SE8       30.09R
BLAINE         CLEAR     75  68  78 SE7       30.11R
LAKEVILLE      CLEAR     72  68  88 CALM      30.12R
EDEN PRAIRIE   CLEAR     77  68  73 SE9       30.10R
LAKEVILLE      CLEAR     72  68  88 CALM      30.12R
SOUTH ST PAUL  CLEAR     76  68  75 SE5       30.11S
LAKE ELMO      FAIR      73  70  88 SE6       30.13R
$$
MNZ001>005-007-008-013>017-022>024-027-028-290300-
   Northwest Minnesota

CITY           SKY/WX    TMP DP  RH WIND       PRES   REMARKS
BEMIDJI        CLOUDY    73  68  85 E8        30.03R
HALLOCK        PTCLDY    72  66  83 E12       29.95R
ROSEAU         CLOUDY    70  64  83 SE14      30.01S
WARROAD        CLOUDY    64  61  88 E7        30.02F
THIEF RVR FALL CLOUDY    73  68  84 E8        29.97R
CROOKSTON      CLOUDY    75  70  83 SE15      29.93F THUNDER
FOSSTON        CLOUDY    72  66  83 SE10      29.99F THUNDER
DETROIT LAKES  PTCLDY    77  70  78 S13       30.02R
MOORHEAD       CLEAR     81  73  78 S15       29.93S
PARK RAPIDS    CLOUDY    76  69  79 SE10      30.05R
MAHNOMEN       CLOUDY    76  71  84 SE10      29.99R THUNDER
$$
MNZ006-009>011-018-025>026-290300-
   North Central Minnesota

CITY           SKY/WX    TMP DP  RH WIND       PRES   REMARKS
BAUDETTE       RAIN      63  61  93 S10       30.08F FOG
FLAG ISLAND    CLOUDY    70  64  83 SE7       30.03R
INTL FALLS     LGT RAIN  67  64  90 E9        30.06F
WASKISH        MOCLDY    70  64  83 E8        30.06R
BIG FORK       CLEAR     68  63  83 SE5       30.09S
LONGVILLE      PTCLDY    72  66  83 SE5       30.07R
GRAND RAPIDS   CLEAR     70  66  87 SE6       30.12R
CRANE LAKE     CLOUDY    61  61 100 CALM      30.14R
ORR            CLOUDY    64  63  94 CALM      30.11S
COOK           CLOUDY    64  63  94 CALM      30.13S
WALKER         CLOUDY    72  67  86 SE7       30.06R
$$
MNZ012-019>021-037-290300-
   Northeast Minnesota

CITY           SKY/WX    TMP DP  RH WIND       PRES   REMARKS
DULUTH         MOCLDY    64  61  90 E12       30.17R
ELY            PTCLDY    63  57  82 SE6       30.16R
HIBBING        CLEAR     65  63  93 SE7       30.12R
EVELETH        CLEAR     66  61  85 SE3       30.15S
DULUTH HARBOR  CLOUDY    66  64  94 NE10      30.16R
TWO HARBORS    CLEAR     64  59  82 NE3       30.16R
SILVER BAY     PTCLDY    61  61 100 CALM      30.17R
G MARAIS ARPRT CLEAR     61  48  63 SE3       30.22R
$$
MNZ029>031-032-039>041-046>048-054>057-064-290300-
   West Central Minnesota

CITY           SKY/WX    TMP DP  RH WIND       PRES   REMARKS
FERGUS FALLS   CLEAR     79  72  78 S15       30.00R
WHEATON        CLOUDY    81  73  78 SE10      30.00R
MORRIS         CLEAR     79  73  83 SE6       30.02R
ALEXANDRIA     CLEAR     75  70  84 SE12      30.07R
ELBOW LAKE     FAIR      76  73  90 SE14      30.02R
WADENA         PTCLDY    75  68  78 SE13      30.03S
GLENWOOD       CLEAR     75  70  83 SE9       30.07R
APPLETON       CLEAR     79  72  78 SE7       30.03R
BENSON         CLEAR     79  70  73 S9G16     30.05R
ORTONVILLE     CLEAR     79  72  78 SE6       30.02R
MADISON        CLEAR     75  72  88 SE7       30.04R
WILLMAR        FAIR      75  72  88 SE7       30.08R
$$
MNZ033>034-036-042>043-049>051-058-059-290300-
   Central Minnesota

CITY           SKY/WX    TMP DP  RH WIND       PRES   REMARKS
ST CLOUD       CLEAR     73  71  93 SE5       30.09R
SAUK CENTRE    FAIR      74  69  85 SE8       30.08R
PAYNESVILLE    CLEAR     75  68  77 SE7       30.08R
AITKIN         CLEAR     73  64  73 SE8       30.09R
PINE RIVER     CLEAR     72  68  88 SE10G16   30.09R
BRAINERD       CLEAR     72  69  90 SE9       30.08R
STAPLES        CLEAR     73  66  78 SE9       30.05S
LONG PRAIRIE   FAIR      72  68  88 E6        30.08R
LITTLE FALLS   CLEAR     73  66  78 SE6       30.09R
LITCHFIELD     CLEAR     77  72  83 SE6       30.09R
BUFFALO        CLEAR     74  68  79 SE5       30.11R
MAPLE LAKE     CLEAR     74  71  89 CALM      30.10R
HUTCHINSON     CLEAR     73  71  93 E5        30.10R
$$
MNZ037-044-045-052-053-290300-
   East Central Minnesota

CITY           SKY/WX    TMP DP  RH WIND       PRES   REMARKS
PRINCETON      CLEAR     75  70  83 SE3       30.10R
MORA           MOCLDY    70  66  88 SE5       30.13R
CAMBRIDGE      CLEAR     75  66  73 SE6       30.09S
RUSH CITY      CLEAR     71  68  89 E5        30.12R
MOOSE LAKE     MOCLDY    70  64  83 E5        30.13R
HINCKLEY       CLOUDY    72  68  88 E7        30.13R
CLOQUET        PTCLDY    64  61  88 E5        30.16R
MCGREGOR       PTCLDY    70  64  83 SE9       30.12R
$$
MNZ071>073-080-081-089-090-097-098-290300-
   Southwest Minnesota

CITY           SKY/WX    TMP DP  RH WIND       PRES   REMARKS
MONTEVIDEO     CLEAR     79  72  78 S8        30.07R
GRANITE FALLS  CLEAR     79  73  83 SE8       30.07R
CANBY          CLEAR     78  72  80 SE6       30.05R
MARSHALL       CLEAR     78  73  84 S10       30.06R
REDWOOD FALLS  CLEAR     77  69  76 S12       30.07R
OLIVIA         CLEAR     73  70  88 SE7       30.07R
PIPESTONE      CLEAR     77  72  83 S10       30.08R
WINDOM         PTCLDY    75  68  78 SE7       30.10S
WORTHINGTON    PTCLDY    76  72  87 S7        30.11R
JACKSON          N/A     75  68  78 SE6       30.11S
TRACY          CLEAR     77  73  85 S7        30.08R
SLAYTON        CLEAR     75  72  88 S9        30.10S
$$
MNZ065>067-074>077-082>085-091>093-290300-
   South Central Minnesota

CITY           SKY/WX    TMP DP  RH WIND       PRES   REMARKS
MANKATO        CLEAR     73  68  83 SE9       30.10S
NEW ULM          N/A     75  70  83 SE7       30.09R
ST JAMES       CLEAR     68  64  88 SE5       30.10S
FAIRMONT       PTCLDY    73  71  93 SE7       30.11
GLENCOE        CLEAR     75  72  88 SE7       30.09S
FARIBAULT      CLEAR     73  70  88 SE6       30.13R
OWATONNA       CLEAR     73  68  83 SE5       30.14R
WASECA         CLOUDY    72  70  94 SE8       30.14R
ALBERT LEA     PTCLDY    73  72  94 SE3       30.14R
$$
MNZ078>079-086>088-094>096-290300-
   Southeast Minnesota

CITY           SKY/WX    TMP DP  RH WIND       PRES   REMARKS
ROCHESTER      CLEAR     72  70  93 SE8       30.17R
RED WING       CLEAR     75  70  83 SE8       30.12R
DODGE CENTER   CLEAR     70  64  83 SE6       30.16R
WINONA         CLEAR     73  70  88 SE6       30.16S
AUSTIN         CLEAR     72  70  94 SE5       30.15R
PRESTON        PTCLDY    73  69  86 E5        30.18R
$$
ABBREVIATIONS USED IN REMARKS
   TC - TEMPERATURES IN CELSIUS
  WCI - WIND CHILL INDEX
   HX - HEAT INDEX
  VSB - VISIBILITY
$$




USA.gov is the U.S. government's official web portal to all federal, state and local government web resources and services.